sat.trackr.live / text

‹ back to catalog

STARLINK-30542

NORAD 58041 · 2023-156P

PAYLOAD ACTIVE UNKNOWN

§ Identity

Operator
Country
US
Launch date
2023-10-09
Launch site
AFWTR
Launch vehicle
Mass (kg)
RCS (m²)

Purposes: comms

External: N2YO · Heavens-Above · Gunter

§ Orbital elements

Epoch: 2026-09-20T22:45:19.677888Z

Period
93.85 min
Inclination
53.1587°
Eccentricity
0.0001238
Mean motion
15.34387333 rev/d
Perigee alt
461.9 km
Apogee alt
463.6 km
Semi-major
6,840.9 km
B*
2.6361e-5
RAAN
249.2694°
Arg perigee
83.7578°
Mean anomaly
276.3566°
Rev number
16,623

§ Raw data

STARLINK-305421 58041U 23156P   26263.94814442  .00000514  00000+0  26361-4 0  99912 58041  53.1587 249.2694 0001238  83.7578 276.3566 15.34387333166230

JSON: /api/v1/satellites/58041 · /tle

For live sub-satellite position, see the globe view (requires WebGL).

§ Visibility from observer

Set your observer location to see the next 7 days of passes ≥ 10°. The values pass through the URL so the page stays shareable.

No JS? Fill the form by hand. The geolocation button needs JavaScript.